Погода в Ачинске

Погода в Ачинске : погода сейчас, прогноз погоды и архив. Всё, что Вы хотите узнать о погоде в Ачинске!

Поиск расширенной информации на нашем сайте:

Другие новости

Новости СМИ2

Главная страница сайта

Новости сайта

02.10.2013

Напоминаем, что на нашем новом сайте вы можете получить высокодетализированные прогнозы погоды по пунктам России, СНГ и мира (включающие важные для авиации метеовеличины, такие как направление и скорость ветра, видимость, явления погоды, количество и форма облачности, нижняя и верхняя граница облачности), а также ознакомиться с разнообразными материалами по авиационной метеорологии и подборкой полезных ссылок на эту тему.

Сайт Метеоцентр.Азия посвящён разработке технологий оптимизации авиаметеорологического обслуживания, включая проектирование и перспективное создание нескольких автоматизированных авиаметеорологических систем:
- система выпуска высокодетальных прогностических карт явлений погоды для нижнего воздушного пространства по России и ближнему зарубежью;
- система верификации прогнозов TAF (выпускаемых синоптиками официальных АМСГ РФ и ближнего зарубежья) и AUTOTAF (выпускаемых сайтом Метеоцентр.Азия) - выявление ошибок, онлайн-сопоставление с фактической погодой METAR, автоматическое внесение коррективов в прогнозы при резком отклонении фактической погоды от прогноза, подсчёт оправдываемости прогнозов по элементам и в целом;
- система обработки, анализа и отображения авиаметеорологической информации для применения провайдерами метеорологической информации.


Погода в Ачинске - сегодня

Время (UTC), дата Ветер
(°,м/с) 
Видим.   Явления Облачность Т
(°С)
Тd
(°С)
f(%) Тe
(°С)
Pmin
(гПа)
dP
(гПа)
Po
(мм)
O2
(г/м3)
Тmin Tmax R s Состояние
почвы
12 21.02.17 210 (ЮЗ) 5{11}  4000 м  слаб. снег  10/0 средняя 
[As op]
-4.4 -6.2 87 -8  1016.7  -0.5  738  303    -4.4  0.7     
15 21.02.17 200 (Ю) 20000 м  в посл. час снег  9/9 600 м 
[Sc]
-3.5 -7 77 -6  1015.4  -1.2  737  302           
18 21.02.17 200 (Ю) 6-13{13}  20000 м  позёмок{снег}  10/6 600 м средняя 
[Frnb|As op]
-2.5 -5.6 79 -6  1014.8  -0.4  737  300           
21 21.02.17 210 (ЮЗ) 6-10{13}  20000 м  в посл. час снег  9/9 600 м 
[Sc]
-1.7 -5 78 -5  1014.3  -0.4  737  299           
00 22.02.17 230 (ЮЗ) 5{12}  4000 м  слаб. снег  10/0 средняя 
[As op]
-1.9 -3 92 -5  1015.7  1.3  738  300  -4.5    0.9  28  равномерный
сухой снег
100% 
03 22.02.17 230 (ЮЗ) 5{11}  1000 м  сильн. снег  10/0 средняя 
[As op]
-1.9 -2.7 94 -5  1017.6  1.9  739  300           
06 22.02.17 230 (ЮЗ) 7-10{13}  10 км  слаб. снег  10/8 600 м средняя 
[Frnb|As op]
-0.5 -4.9 72 -4  1018.5  740  299           
09 22.02.17 220 (ЮЗ) 6{11}  10 км  слаб. снег  10/10 600 м 
[Ns]
-0.5 -4 77 -4  1019.5  740  299           
12 22.02.17 230 (ЮЗ) 5{12}  10 км  слаб. снег  10/10 600 м 
[Ns]
-0.9 -4.6 76 -4  1020.8  1.2  741  300    +0.2     
15 22.02.17 230 (ЮЗ) 20000 м  в посл. час снег  9/9 600 м 
[Sc]
-1 -4.3 78 -4  1021.3  0.4  742  300           
18 22.02.17 230 (ЮЗ) 5-10{10}  20000 м  {снег}  9/9 600 м 
[Sc]
-0.2 -5.6 67 -3  1021.7  0.6  742  300           
21 22.02.17 230 (ЮЗ) 5{11}  20000 м    9/9 600 м 
[Sc]
-1 -6 69 -4  1022.3  0.4  742  301           
00 23.02.17 230 (ЮЗ) 4{11}  20000 м    9/9 600 м 
[Sc]
-1.1 -5.8 70 -4  1023  0.7  743  301  -1.9    0.0  30  равномерный
мокрый или
старый снег
100% 
03 23.02.17 220 (ЮЗ) 20000 м    9/3 600 м средняя, верхняя 
[Sc|Ac trans|Ci fib]
-0.9 -6.9 64 -3  1023.9  0.9  744  301           
06 23.02.17 250 (З) 20000 м    9/0 средняя, верхняя 
[Ac trans|Ci ing]
+2 -5.5 58 +1  1024.1  0.5  744  298           
09 23.02.17 250 (З) 20000 м    9/0 средняя, верхняя 
[Ac trans|Ci fib]
+3.1 -5.4 54 +3  1024.4  0.5  744  297           
12 23.02.17 220 (ЮЗ) 20000 м    9/0 средняя, верхняя 
[Ac trans|Ci ing]
+1.3 -5.8 59 1025.6  0.9  745  299    +3.5       
15 23.02.17 220 (ЮЗ) 20000 м    8/0 верхняя 
[Ci fib]
+0.8 -6.4 59 -2  1026.7  746  300           
18 23.02.17 210 (ЮЗ) 20000 м    ясно 
-0.9 -7.1 63 -3  1027.4  0.5  746  302           
21 23.02.17 230 (ЮЗ) 20000 м    4/3 1000 м средняя 
[Sc|Ac trans]
-1.3 -8.1 60 -4  1027.9  0.4  746  303           
00 24.02.17 210 (ЮЗ) 20000 м    ясно 
-2.3 -8.3 63 -3  1028.4  0.4  747  304  -2.4      28  равномерный
мокрый или
старый снег
100% 
03 24.02.17 160 (Ю) 20000 м    9/0 верхняя 
[Ci fib]
-1.9 -8.3 62 -1  1028.9  0.5  747  304  -3         
06 24.02.17 тихо ()   20000 м    9/0 верхняя 
[Ci fib]
+3.7 -8.1 42 +4  1027.4  -0.8  747  298           
09 24.02.17 050 (СВ) 20000 м    9/0 верхняя 
[Ci fib]
+3.7 -7.4 44 +5  1025.7  -1.6  745  297           
12 24.02.17 170 (Ю) 20000 м    9/0 верхняя 
[Ci fib]
+1.1 -7.2 54 +2  1024.7  -1.3  744  299    +4.3       
Время (UTC), дата Ветер
(°,м/с) 
Видим.   Явления Облачность Т
(°С)
Тd
(°С)
f(%) Тe
(°С)
Pmin
(гПа)
dP
(гПа)
Po
(мм)
O2
(г/м3)
Тmin Tmax R s Состояние
почвы

Для получения пояснительной информации подведите курсор к названию столбца.

ПОГОДА в Ачинске - архив

Всё, что Вы хотите узнать о погоде в Ачинске - удобно и подробно!

Выберите нужную дату (начиная с 1 января 2015* года) и нажмите кнопку "Найти".
Будут отображены архивные сводки погоды по пункту Ачинск, начиная с указанной даты.


Отображать данные в формате CSV (для использования в таблицах Excel)


Внимание! Наш архив погоды предназначен исключительно для личного некоммерческого использования в познавательных целях. Если Вам необходимы официальные справки о состоянии погоды (для производственных, юридических, коммерческих и т.п. целей), обращайтесь в органы Росгидромета.

*Примечание: данная дата относится к архиву по метеостанциям СССР (Россия, СНГ, Балтия).
Архив по метеостанциям Зарубежной Европы и Азии (кроме Китая) хранится 10 дней, по другим регионам земного шара (Китай, Африка, Америка, Австралия, Океания) - 1 день.

Ачинск - район местоположения метеостанции


Название, широта, долгота, высота метеостанции:
Ачинск 56.3°ш. 90.5°д. 272 м над ур. моря [Российская Федерация]

Дополнительная информация

В oтличие oт бoльшинства пoгoдных сайтoв мы публикуем пoдрoбную метеoинфoрмацию в детальнoм прoфессиoнальнoм фoрмате.

Характеристики температуры и влажнoсти вoздуха измеряются на высoте 2 м в тени вдали oт зданий и деревьев.
Скoрoсть ветра измеряется на высoте 10 м (на урoвне рoста челoвека скoрoсть ветра ниже в 1.5-2 раза). Если метеoстанция нахoдится в гoрoде или в лесу, тo скoрoсть ветра занижена на 2-4 м/с пo сравнению с oткрытым местoм. Скoрoсть ветра над акватoриями крупных рек и oзёр, а также на вершинах хoлмoв на 2-5 м/с выше, чем в oбычных услoвиях.
Атмoсфернoе давление в разных тoчках местнoсти мoжет значительнo oтличаться oт давления на метеoстанции, в зависимoсти oт услoвий рельефа (при пoдъёме на 10 м давление пoнижается примернo на 1 мм рт.ст.).